Miscellaneous Local Product
Issued by NWS North Platte, NE

Home | Current Version | Previous Version | Graphics & Text | Print | Product List | Glossary On
Versions: 1 2 3 4 5 6 7 8 9 10 11 12 13 14 15 16 17 18 19 20 21 22 23 24 25 26 27 28 29 30 31 32 33 34 35 36 37 38 39 40 41 42 43 44 45 46 47 48 49 50
000
AXUS43 KLBF 300710
MISLBF


WESTERN AND NORTH CENTRAL NEBRASKA HOURLY WEATHER ROUNDUP
NATIONAL WEATHER SERVICE NORTH PLATTE NE
200 AM CDT THU JUL 30 2015

***STATIONS NOT REPORTING VARIABLES SUCH AS SKY/WEATHER OR
PRESSURE ARE PROVIDED BY THE NEBRASKA DEPARTMENT OF
ROADS...RAWS...AND APRS NETWORKS...AND ARE NOT UNDER
NATIONAL WEATHER SERVICE QUALITY CONTROL***

...OBSERVATIONS IN AND NEAR THE EASTERN PANHANDLE OF NEBRASKA...

CITY           SKY/WX    TMP DP  RH WIND       PRES   REMARKS
PINE RIDGE     CLEAR     56  49  77 CALM      30.22R
CHADRON        CLEAR     55  50  83 W6        30.20S
ALLIANCE       PTCLDY    61  48  62 S6        30.24S
SIDNEY         CLEAR     63  46  54 S12       30.28S
BIG SPRINGS      N/A     63  51  64 S13         N/A
$$

...OBSERVATIONS IN NORTH CENTRAL NEBRASKA...

CITY           SKY/WX    TMP DP  RH WIND       PRES   REMARKS
VALENTINE      PTCLDY    60  50  69 W3        30.21R
THEDFORD       CLEAR     66  54  65 S7        30.24S
AINSWORTH      CLEAR     66  54  65 W5        30.21R
O`NEILL        CLEAR     63  55  76 CALM      30.19S
ORD            CLEAR     60  54  80 CALM      30.19S
BROKEN BOW     CLEAR     58  53  84 CALM      30.23S
SPRINGVIEW       N/A     64  57  78 CALM        N/A
CHAMBERS         N/A     64  52  66 S3          N/A
EWING            N/A     60  55  85 CALM        N/A
$$

...OBSERVATIONS IN SOUTHWEST NEBRASKA AND FAR NORTHEAST COLORADO...

CITY           SKY/WX    TMP DP  RH WIND       PRES   REMARKS
WRAY           FAIR      62  51  67 S6        30.28S
HOLYOKE        FAIR      59  52  77 S5        30.28S
IMPERIAL       CLEAR     59  50  72 S7        30.26F
OGALLALA       CLEAR     61  51  68 CALM      30.26S
NORTH PLATTE   CLEAR     57  53  86 CALM      30.25S
MCCOOK         CLEAR     62  54  74 SE3       30.25S
LEXINGTON      CLEAR     60  55  83 S6        30.24S
PAXTON           N/A     59  54  84 CALM        N/A
BRADY            N/A     60  53  79 CALM        N/A
CALLAWAY         N/A     58  56  95 S10         N/A
$$

...NORTH PLATTE AREA...

CITY           SKY/WX    TMP DP  RH WIND       PRES   REMARKS
AIRPORT        CLEAR     57  53  86 CALM      30.25S
DOWNTOWN         N/A     65  54  66 CALM        N/A
SANDRIDGE        N/A     64  54  69 CALM        N/A
HILLCREST        N/A     63  54  72 S3          N/A
$$

...SOME WEATHER OBSERVATIONS FROM AROUND THE REGION...

CITY           SKY/WX    TMP DP  RH WIND       PRES   REMARKS
DENVER         MOCLDY    69  48  47 S15       30.29F
LARAMIE        CLEAR     52  45  77 SE3       30.43S
CHEYENNE       CLEAR     62  46  55 SW6       30.36S
SCOTTSBLUFF    PTCLDY    66  50  56 E7        30.25R
RAPID CITY     CLEAR     57  47  69 NW7       30.21S
PIERRE         CLEAR     63  49  60 S5        30.12R
WINNER         MOCLDY    72  51  47 S6        30.16S
SIOUX FALLS    PTCLDY    62  58  86 CALM      30.12S
OMAHA          CLEAR     68  61  78 SE6       30.16S
GRAND ISLAND   CLEAR     61  54  77 SW5       30.22S
KANSAS CITY    PTCLDY    70  65  84 NE3       30.17S
WICHITA        MOCLDY    75  69  81 E8        30.16S
HAYS           PTCLDY    70  55  60 E5        30.22S
LIBERAL        MOCLDY    70  63  78 E8        30.24S
GOODLAND       PTCLDY    59  55  87 SE6       30.29S
$$



USA.gov is the U.S. government's official web portal to all federal, state and local government web resources and services.